TimeCDT,TemperatureF,Dew PointF,Humidity,Sea Level PressureIn,VisibilityMPH,Wind Direction,Wind SpeedMPH,Gust SpeedMPH,PrecipitationIn,Events,Conditions,WindDirDegrees,DateUTC
12:15 AM,43.0,35.2,74,30.19,10.0,West,11.5,-,N/A,,Clear,270,2013-10-07 05:15:00
12:35 AM,42.8,35.1,74,30.19,10.0,West,9.2,-,N/A,,Clear,260,2013-10-07 05:35:00
12:55 AM,43.7,34.7,71,30.19,10.0,West,11.5,-,N/A,,Clear,280,2013-10-07 05:55:00
1:15 AM,44.2,35.2,71,30.17,10.0,West,10.4,-,N/A,,Clear,280,2013-10-07 06:15:00
1:35 AM,46.4,35.6,66,30.17,10.0,West,11.5,-,N/A,,Clear,270,2013-10-07 06:35:00
1:55 AM,44.6,35.6,71,30.17,10.0,WSW,12.7,-,N/A,,Clear,250,2013-10-07 06:55:00
2:15 AM,44.4,35.2,70,30.17,10.0,WSW,13.8,-,N/A,,Clear,250,2013-10-07 07:15:00
2:55 AM,43.3,35.6,74,30.17,10.0,WSW,11.5,-,N/A,,Clear,250,2013-10-07 07:55:00
3:15 AM,42.3,35.2,76,30.17,10.0,West,10.4,-,N/A,,Clear,260,2013-10-07 08:15:00
3:35 AM,41.4,35.1,78,30.17,10.0,WSW,6.9,-,N/A,,Clear,250,2013-10-07 08:35:00
3:55 AM,39.9,34.5,81,30.16,10.0,West,6.9,-,N/A,,Clear,260,2013-10-07 08:55:00
4:15 AM,39.2,34.3,83,30.16,10.0,West,6.9,-,N/A,,Clear,270,2013-10-07 09:15:00
4:35 AM,39.2,34.2,82,30.15,10.0,West,10.4,-,N/A,,Clear,270,2013-10-07 09:35:00
4:55 AM,38.7,34.0,83,30.14,10.0,West,8.1,-,N/A,,Clear,260,2013-10-07 09:55:00
5:15 AM,38.3,33.6,83,30.14,10.0,West,8.1,-,N/A,,Clear,270,2013-10-07 10:15:00
5:35 AM,38.3,33.8,84,30.14,10.0,West,8.1,-,N/A,,Clear,270,2013-10-07 10:35:00
5:55 AM,38.3,33.3,82,30.13,10.0,West,6.9,-,N/A,,Clear,270,2013-10-07 10:55:00
6:15 AM,37.8,33.1,83,30.13,10.0,West,5.8,-,N/A,,Clear,270,2013-10-07 11:15:00
6:35 AM,39.2,33.4,80,30.13,10.0,West,6.9,-,N/A,,Clear,260,2013-10-07 11:35:00
6:55 AM,38.1,32.7,81,30.13,10.0,West,5.8,-,N/A,,Clear,260,2013-10-07 11:55:00
7:15 AM,37.9,32.4,80,30.13,10.0,West,4.6,-,N/A,,Clear,260,2013-10-07 12:15:00
7:35 AM,36.3,32.0,84,30.12,10.0,West,5.8,-,N/A,,Clear,260,2013-10-07 12:35:00
7:55 AM,36.7,32.0,83,30.12,10.0,West,5.8,-,N/A,,Clear,270,2013-10-07 12:55:00
8:15 AM,36.5,32.4,85,30.12,10.0,West,5.8,-,N/A,,Clear,280,2013-10-07 13:15:00
8:35 AM,39.4,33.8,80,30.12,10.0,West,6.9,-,N/A,,Clear,260,2013-10-07 13:35:00
8:55 AM,42.6,34.9,74,30.13,10.0,West,5.8,-,N/A,,Clear,270,2013-10-07 13:55:00
9:15 AM,45.5,35.4,68,30.13,10.0,West,6.9,-,N/A,,Clear,270,2013-10-07 14:15:00
9:35 AM,48.9,37.2,64,30.13,10.0,West,4.6,-,N/A,,Clear,270,2013-10-07 14:35:00
9:55 AM,53.1,38.3,57,30.13,10.0,West,4.6,-,N/A,,Clear,280,2013-10-07 14:55:00
10:15 AM,55.9,39.0,53,30.12,10.0,West,5.8,-,N/A,,Clear,270,2013-10-07 15:15:00
10:35 AM,59.2,41.0,51,30.12,10.0,West,4.6,-,N/A,,Clear,260,2013-10-07 15:35:00
10:55 AM,62.8,37.6,39,30.12,10.0,West,4.6,-,N/A,,Clear,270,2013-10-07 15:55:00
11:15 AM,65.3,34.0,31,30.11,10.0,West,9.2,-,N/A,,Clear,280,2013-10-07 16:15:00
11:35 AM,67.1,35.4,31,30.11,10.0,WNW,6.9,-,N/A,,Clear,290,2013-10-07 16:35:00
11:55 AM,69.1,27.5,21,30.10,10.0,WSW,10.4,-,N/A,,Clear,250,2013-10-07 16:55:00
12:15 PM,70.7,27.0,20,30.10,10.0,SW,11.5,-,N/A,,Clear,230,2013-10-07 17:15:00
12:35 PM,71.8,27.7,19,30.08,10.0,SW,10.4,-,N/A,,Clear,230,2013-10-07 17:35:00
12:55 PM,73.0,27.9,19,30.08,10.0,SW,11.5,19.6,N/A,,Clear,220,2013-10-07 17:55:00
1:15 PM,73.8,25.2,16,30.07,10.0,SW,12.7,17.3,N/A,,Clear,230,2013-10-07 18:15:00
1:35 PM,74.7,24.6,16,30.06,10.0,SW,15.0,-,N/A,,Clear,220,2013-10-07 18:35:00
1:55 PM,74.5,21.4,14,30.05,10.0,SSW,10.4,19.6,N/A,,Clear,210,2013-10-07 18:55:00
2:15 PM,75.2,23.7,15,30.04,10.0,SW,11.5,17.3,N/A,,Clear,220,2013-10-07 19:15:00
2:35 PM,75.4,21.9,14,30.03,10.0,SSW,9.2,20.7,N/A,,Clear,210,2013-10-07 19:35:00
2:55 PM,75.7,19.4,12,30.02,10.0,SSW,10.4,16.1,N/A,,Clear,210,2013-10-07 19:55:00
3:15 PM,76.1,23.0,14,30.02,10.0,SW,12.7,-,N/A,,Clear,230,2013-10-07 20:15:00
3:35 PM,76.5,23.0,14,30.02,10.0,SSW,8.1,16.1,N/A,,Clear,210,2013-10-07 20:35:00
3:55 PM,76.3,22.3,13,30.01,10.0,SW,9.2,17.3,N/A,,Clear,230,2013-10-07 20:55:00
4:15 PM,76.3,22.3,13,30.01,10.0,SW,10.4,-,N/A,,Clear,230,2013-10-07 21:15:00
4:35 PM,76.3,22.8,14,30.00,10.0,SSW,10.4,16.1,N/A,,Clear,210,2013-10-07 21:35:00
4:55 PM,76.1,24.1,14,29.99,10.0,SW,11.5,-,N/A,,Clear,220,2013-10-07 21:55:00
5:15 PM,76.1,21.4,13,29.99,10.0,SSW,9.2,-,N/A,,Clear,210,2013-10-07 22:15:00
5:35 PM,75.4,22.5,14,29.98,10.0,SW,10.4,-,N/A,,Clear,220,2013-10-07 22:35:00
5:55 PM,73.4,28.0,19,29.98,10.0,South,8.1,-,N/A,,Clear,190,2013-10-07 22:55:00
6:15 PM,70.2,32.0,24,29.97,10.0,South,8.1,-,N/A,,Clear,190,2013-10-07 23:15:00
6:35 PM,69.3,35.6,29,29.97,10.0,South,6.9,-,N/A,,Clear,180,2013-10-07 23:35:00
6:55 PM,65.8,38.7,37,29.97,10.0,South,6.9,-,N/A,,Clear,180,2013-10-07 23:55:00
7:15 PM,63.1,39.9,42,29.97,10.0,South,6.9,-,N/A,,Clear,190,2013-10-08 00:15:00
7:35 PM,61.2,38.1,42,29.97,10.0,South,6.9,-,N/A,,Clear,180,2013-10-08 00:35:00
7:55 PM,58.5,36.5,44,29.97,10.0,South,8.1,-,N/A,,Clear,180,2013-10-08 00:55:00
8:15 PM,56.1,36.1,47,29.97,10.0,South,8.1,-,N/A,,Clear,180,2013-10-08 01:15:00
8:35 PM,55.4,35.1,46,29.97,10.0,SSW,6.9,-,N/A,,Clear,200,2013-10-08 01:35:00
8:55 PM,53.2,35.6,51,29.97,10.0,SSW,8.1,-,N/A,,Clear,210,2013-10-08 01:55:00
9:15 PM,52.2,35.4,53,29.96,10.0,SSW,6.9,-,N/A,,Clear,210,2013-10-08 02:15:00
9:35 PM,54.0,33.1,45,29.97,10.0,SSW,5.8,-,N/A,,Clear,200,2013-10-08 02:35:00
9:55 PM,52.9,32.9,47,29.96,10.0,SSW,5.8,-,N/A,,Clear,200,2013-10-08 02:55:00
10:15 PM,52.7,32.5,46,29.95,10.0,SSW,5.8,-,N/A,,Clear,210,2013-10-08 03:15:00
10:35 PM,51.4,33.1,50,29.95,10.0,SSW,5.8,-,N/A,,Clear,200,2013-10-08 03:35:00
10:55 PM,52.7,31.8,45,29.94,10.0,South,8.1,-,N/A,,Clear,190,2013-10-08 03:55:00
11:15 PM,53.1,30.9,43,29.94,10.0,South,5.8,-,N/A,,Clear,190,2013-10-08 04:15:00
11:35 PM,51.8,31.8,47,29.94,10.0,South,5.8,-,N/A,,Clear,190,2013-10-08 04:35:00
11:55 PM,52.7,32.0,45,29.93,10.0,South,3.5,-,N/A,,Clear,190,2013-10-08 04:55:00